CW5306 Weather Reports


time (UTC)temp
F
wind
direction
speed
knots
gust
knots
rain 1hr
in
rain 24hr
in
rain mn
in
humidity
%
barometer
mb
20260505035332 77 111 4.3 12.2 0.00 0.00 0.00 78 1017.5
20260505034831 77 79 7.0 11.3 0.00 0.00 0.00 78 1017.5
20260505034332 77 124 3.5 11.3 0.00 0.01 0.00 77 1017.2
20260505034102 77 111 5.2 11.3 0.00 0.01 0.00 76 1017.2
20260505033331 78 96 5.2 12.2 0.00 0.01 0.00 74 1017.3
20260505032833 78 113 4.3 12.2 0.00 0.01 0.00 73 1017.2
20260505032332 79 57 0.0 8.7 0.00 0.01 0.00 74 1017.4
20260505031832 78 86 2.6 9.6 0.00 0.01 0.00 75 1017.4
20260505031332 78 123 0.9 9.6 0.00 0.01 0.00 74 1017.5
20260505030831 77 103 7.0 12.2 0.00 0.01 0.00 74 1017.5
20260505030332 77 94 1.7 12.2 0.00 0.01 0.00 76 1017.5
20260505025833 77 145 5.2 9.6 0.00 0.01 0.00 78 1017.3
20260505025604 77 119 4.3 9.6 0.00 0.01 0.00 78 1017.5
20260505025102 77 85 6.1 9.6 0.00 0.01 0.00 78 1017.6
20260505024331 77 83 0.9 8.7 0.00 0.01 0.00 78 1017.5
20260505023831 77 104 3.5 8.7 0.00 0.01 0.00 78 1017.5
20260505023332 78 105 2.6 11.3 0.00 0.01 0.00 78 1017.5
20260505022833 79 141 7.0 11.3 0.00 0.01 0.00 75 1017.7
20260505022332 80 94 1.7 13.0 0.00 0.01 0.00 74 1017.9
20260505021833 79 90 0.0 13.0 0.00 0.01 0.00 76 1017.7
20260505021332 79 78 4.3 13.0 0.00 0.01 0.00 76 1017.6
20260505020832 78 106 3.5 13.0 0.00 0.01 0.00 75 1018.0
20260505020332 78 121 4.3 12.2 0.00 0.01 0.00 75 1017.6
20260505015603 78 90 7.8 13.0 0.00 0.01 0.00 75 1017.8
20260505015102 77 71 5.2 13.0 0.00 0.01 0.00 76 1017.9
20260505014332 77 103 3.5 13.0 0.00 0.01 0.00 73 1017.7
20260505013831 77 96 6.1 13.0 0.00 0.01 0.00 74 1017.8
20260505013331 78 119 8.7 12.2 0.00 0.01 0.00 74 1017.7
20260505012833 79 120 0.0 12.2 0.00 0.01 0.00 72 1017.5
20260505012334 80 128 5.2 12.2 0.00 0.01 0.00 72 1017.3
20260505011831 80 124 7.8 11.3 0.00 0.01 0.00 71 1017.8
20260505011332 80 139 4.3 9.6 0.00 0.01 0.00 72 1018.0
20260505010831 80 69 3.5 9.6 0.00 0.01 0.00 70 1018.0
20260505010326 80 159 3.5 11.3 0.00 0.01 0.00 71 1018.2
20260505005820 80 131 4.3 11.3 0.00 0.01 0.00 72 1018.4
20260505005319 80 86 2.6 12.2 0.00 0.01 0.00 70 1018.4
20260505004820 81 110 7.8 13.9 0.00 0.01 0.00 69 1018.5
20260505004320 80 76 3.5 13.9 0.00 0.01 0.00 70 1018.2
20260505003820 80 160 4.3 13.0 0.00 0.01 0.00 73 1018.2
20260505003550 80 108 7.0 17.4 0.00 0.01 0.00 72 1018.5
20260505002820 80 104 9.6 17.4 0.00 0.01 0.00 73 1018.4
20260505002550 80 124 6.1 13.9 0.00 0.01 0.00 73 1018.4
20260505001819 80 107 7.0 13.9 0.00 0.01 0.00 75 1018.3
20260505001550 80 93 5.2 13.0 0.00 0.01 0.00 75 1018.5
20260505000820 80 116 5.2 13.0 0.00 0.02 0.00 72 1018.4
20260505000319 80 96 1.7 11.3 0.00 0.02 0.00 74 1018.5
20260504235819 81 97 4.3 9.6 0.00 0.02 0.00 71 1018.8
20260504235320 80 84 6.1 11.3 0.00 0.02 0.00 74 1018.6
20260504234820 80 118 0.9 11.3 0.00 0.02 0.00 71 1018.7
20260504234320 80 111 2.6 12.2 0.00 0.02 0.00 71 1019.0
20260504234051 80 124 7.8 13.0 0.00 0.02 0.00 71 1018.9
20260504233552 80 98 7.8 13.0 0.00 0.02 0.00 73 1018.9
20260504232820 80 101 3.5 13.9 0.00 0.02 0.00 74 1018.7
20260504232551 80 119 5.2 13.9 0.00 0.02 0.00 73 1018.7
20260504231819 80 132 2.6 13.9 0.00 0.02 0.00 75 1018.8
20260504231319 80 128 8.7 14.8 0.00 0.02 0.00 76 1018.7
20260504230820 80 119 6.1 14.8 0.00 0.02 0.00 74 1018.6
20260504230320 80 117 7.0 13.9 0.00 0.02 0.00 76 1018.9
20260504225820 78 142 4.3 13.9 0.00 0.02 0.00 76 1018.9
20260504225320 79 159 6.1 14.8 0.00 0.02 0.00 74 1019.0
20260504225051 80 71 0.0 14.8 0.00 0.02 0.00 74 1018.8
20260504224321 80 77 2.6 14.8 0.00 0.02 0.00 72 1018.9
20260504223820 81 83 4.3 14.8 0.00 0.02 0.00 72 1018.9
20260504223320 80 78 2.6 13.9 0.00 0.02 0.00 74 1018.9
20260504222821 80 138 5.2 13.9 0.00 0.02 0.00 73 1019.2
20260504222320 79 35 5.2 13.9 0.00 0.02 0.00 73 1019.0
20260504221821 80 103 7.0 13.9 0.00 0.02 0.00 71 1019.1
20260504221323 80 112 3.5 13.9 0.00 0.02 0.00 71 1019.2
20260504220820 80 75 5.2 13.0 0.00 0.02 0.00 72 1019.2
20260504220320 80 85 4.3 13.9 0.00 0.02 0.00 71 1019.2
20260504215820 80 98 5.2 13.9 0.00 0.02 0.00 72 1019.2
20260504215320 80 124 4.3 13.0 0.00 0.02 0.00 73 1019.1
20260504214820 79 82 4.3 14.8 0.00 0.02 0.00 72 1019.2
20260504214320 79 75 4.3 14.8 0.00 0.02 0.00 75 1019.6
20260504213820 79 105 7.0 16.5 0.00 0.02 0.00 73 1019.1
20260504213539 79 66 9.6 16.5 0.00 0.02 0.00 72 1019.3
20260504212807 80 114 2.6 13.0 0.00 0.02 0.00 73 1019.3
20260504212257 80 77 4.3 12.2 0.00 0.02 0.00 73 1019.5
20260504211758 80 78 7.0 13.9 0.00 0.02 0.00 73 1019.6
20260504211115 79 46 5.2 14.8 0.00 0.02 0.00 72 1019.4
20260504210615 79 92 1.7 13.9 0.00 0.02 0.00 71 1020.0
20260504210115 79 117 7.0 13.9 0.00 0.02 0.00 71 1019.7
20260504205615 79 94 6.1 13.9 0.00 0.02 0.00 71 1019.7
20260504205346 80 59 7.8 16.5 0.00 0.02 0.00 71 1019.7
20260504204614 79 80 5.2 16.5 0.00 0.02 0.00 71 1019.5
20260504204114 79 80 1.7 12.2 0.00 0.02 0.00 71 1019.6
20260504203614 80 100 5.2 11.3 0.00 0.02 0.00 70 1019.8
20260504203114 80 141 3.5 12.2 0.00 0.02 0.00 70 1019.7
20260504202614 80 79 7.0 12.2 0.00 0.02 0.00 71 1019.8
20260504202347 80 83 7.8 12.2 0.00 0.02 0.00 70 1019.7
20260504201614 79 126 7.8 14.8 0.00 0.02 0.00 71 1019.9
20260504201114 78 108 5.2 14.8 0.00 0.09 0.00 74 1019.7
20260504200614 78 59 7.0 13.9 0.00 0.15 0.00 72 1019.8
20260504200116 78 67 0.0 13.9 0.00 0.15 0.00 73 1019.8
20260504195847 79 91 4.3 13.9 0.00 0.15 0.00 71 1020.0
20260504195115 79 98 8.7 11.3 0.00 0.15 0.00 72 1020.1
20260504194846 79 81 7.0 12.2 0.00 0.15 0.00 72 1020.0
20260504194346 78 83 4.3 12.2 0.00 0.15 0.00 72 1020.1
20260504193614 78 89 7.0 12.2 0.00 0.15 0.00 72 1020.1
20260504193114 78 77 0.9 13.0 0.00 0.15 0.00 73 1019.9
20260504192615 78 66 3.5 13.9 0.00 0.15 0.00 72 1020.2
20260504192116 78 109 0.9 13.9 0.00 0.15 0.00 74 1020.3
20260504191615 78 98 5.2 12.2 0.00 0.15 0.00 73 1020.3
20260504191114 78 84 9.6 12.2 0.00 0.15 0.00 73 1020.0
20260504190614 77 90 5.2 11.3 0.00 0.15 0.00 75 1020.2
20260504190114 76 106 0.0 12.2 0.00 0.15 0.00 75 1020.0
20260504185615 77 41 6.1 13.0 0.00 0.15 0.00 72 1020.1
20260504185114 77 96 7.0 13.0 0.00 0.15 0.00 73 1020.1
20260504184846 77 70 6.1 12.2 0.00 0.15 0.00 75 1020.0
20260504184115 77 116 3.5 13.0 0.00 0.15 0.00 73 1020.0
20260504183616 77 49 9.6 13.0 0.00 0.15 0.00 72 1019.9
20260504183115 77 111 3.5 12.2 0.00 0.15 0.00 74 1020.1
20260504182615 77 81 9.6 13.9 0.00 0.15 0.00 74 1020.1
20260504182115 76 84 5.2 13.9 0.00 0.15 0.00 72 1020.1
20260504181615 77 90 3.5 11.3 0.00 0.15 0.00 73 1019.9
20260504181347 77 107 4.3 9.6 0.00 0.15 0.00 73 1019.8
20260504180614 76 109 4.3 12.2 0.00 0.15 0.00 74 1020.0
20260504180114 76 94 6.1 12.2 0.00 0.15 0.00 73 1020.0
20260504175614 76 107 5.2 11.3 0.00 0.15 0.00 76 1019.7
20260504175115 76 75 2.6 11.3 0.00 0.15 0.00 76 1019.8
20260504174615 76 67 7.0 11.3 0.00 0.15 0.00 75 1019.8
20260504174115 76 75 4.3 9.6 0.00 0.15 0.00 74 1020.0
20260504173615 76 73 5.2 11.3 0.00 0.15 0.00 74 1020.1
20260504173114 75 64 6.1 11.3 0.00 0.15 0.00 74 1019.9
20260504172848 75 93 5.2 13.0 0.00 0.15 0.00 75 1020.2
20260504172114 74 78 3.5 13.0 0.00 0.15 0.00 75 1019.7
20260504171615 74 38 6.1 9.6 0.00 0.15 0.00 77 1019.7
20260504171346 74 58 7.0 9.6 0.00 0.15 0.00 77 1019.6
20260504170615 74 95 3.5 8.7 0.00 0.15 0.00 76 1019.7
20260504170115 74 120 3.5 12.2 0.00 0.15 0.00 76 1019.7
20260504160115 72 104 1.7 11.3 0.00 0.15 0.00 80 1019.3
20260504151104 72 93 2.6 8.7 0.00 0.15 0.00 80 1018.7
20260504150608 72 104 0.0 8.7 0.00 0.15 0.00 82 1018.5
20260504150602 72 103 4.3 8.7 0.00 0.15 0.00 81 1019.0
20260504141038 72 75 4.3 11.3 0.00 0.15 0.00 81 1018.3
20260504140538 72 91 3.5 11.3 0.00 0.15 0.00 81 1018.3
20260504130527 73 143 4.3 9.6 0.00 0.15 0.00 81 1018.1
20260504120315 72 96 7.0 12.2 0.00 0.15 0.00 87 1018.7
20260504110523 72 105 8.7 12.2 0.00 0.15 0.00 85 1019.2
20260504100252 74 67 7.0 13.0 0.00 0.15 0.00 79 1019.7
20260504081727 74 85 6.1 13.9 0.00 0.15 0.15 78 1020.2
20260504081228 74 112 6.1 16.5 0.00 0.15 0.15 77 1020.0
20260504080728 74 99 9.6 16.5 0.00 0.15 0.15 78 1020.0
20260504080228 74 73 5.2 16.5 0.00 0.15 0.15 77 1020.0
20260504070229 74 163 4.3 16.5 0.00 0.15 0.15 79 1019.5
20260504050727 74 80 6.1 17.4 0.00 0.15 0.15 80 1018.3
20260504050228 74 9 4.3 16.5 0.00 0.15 0.15 81 1018.6
20260504045728 74 42 7.0 14.8 0.00 0.15 0.15 81 1018.5
20260504045227 74 86 8.7 18.2 0.00 0.15 0.15 82 1018.1
20260504044728 74 69 13.9 20.0 0.01 0.15 0.15 80 1018.4
20260504044228 74 93 9.6 20.0 0.01 0.15 0.15 82 1018.3
20260504043727 74 39 7.0 18.2 0.01 0.15 0.15 81 1018.3
20260504043228 74 30 6.1 18.2 0.01 0.15 0.15 82 1018.4
20260504042728 74 78 9.6 17.4 0.01 0.15 0.15 81 1018.2
20260504042500 74 60 9.6 14.8 0.01 0.15 0.15 80 1018.3
20260504041728 74 56 7.0 14.8 0.01 0.15 0.15 81 1017.9
20260504041227 74 53 9.6 16.5 0.01 0.15 0.15 82 1017.8
20260504040734 73 32 10.4 13.9 0.01 0.15 0.15 86 1017.9
20260504040727 74 80 11.3 16.5 0.01 0.15 0.15 84 1017.9